sat.trackr.live / text

‹ back to catalog

STARLINK-31799

NORAD 59652 · 2024-082X

PAYLOAD ACTIVE UNKNOWN

§ Identity

Operator
Country
US
Launch date
2024-05-03
Launch site
AFETR
Launch vehicle
Mass (kg)
RCS (m²)

Purposes: comms

External: N2YO · Heavens-Above · Gunter

§ Orbital elements

Epoch: 2026-09-21T06:02:17.858976Z

Period
94.27 min
Inclination
42.9897°
Eccentricity
0.0001163
Mean motion
15.27578639 rev/d
Perigee alt
482.3 km
Apogee alt
483.9 km
Semi-major
6,861.2 km
B*
6.9096e-6
RAAN
104.7115°
Arg perigee
266.7714°
Mean anomaly
93.3005°
Rev number
13,489

§ Raw data

STARLINK-317991 59652U 24082X   26264.25159559 -.00000072  00000+0  69096-5 0  99982 59652  42.9897 104.7115 0001163 266.7714  93.3005 15.27578639134899

JSON: /api/v1/satellites/59652 · /tle

For live sub-satellite position, see the globe view (requires WebGL).

§ Visibility from observer

Set your observer location to see the next 7 days of passes ≥ 10°. The values pass through the URL so the page stays shareable.

No JS? Fill the form by hand. The geolocation button needs JavaScript.